Location: Mont�gut
(42.9824°N, 1.0948°E)
Time: 12:00:36
(UTC+00:00)

Daily predictions for brighter satellites

Satellite Brightness Start Highest point End
(mag) Time Altitude Azimuth Time Altitude Azimuth Time Altitude Azimuth
RESURS DK-1 2.4 19:45:04 10° S 19:49:08 57° ESE 19:53:13 10° NE
ERBS 2.3 19:47:12 10° NW 19:50:26 75° SW 19:53:38 10° SE
Cosmos 2221 2.8 19:46:13 10° N 19:50:27 52° E 19:54:40 10° SSE
COSMOS 2406 3.6 19:46:42 10° SSW 19:52:21 72° WNW 19:58:05 10° NNE
BREEZE-M DEB (TANK) 3.0 19:49:56 10° SSW 19:52:47 45° SE 20:00:29 10° ENE
Meteor 2-13 Rocket 4.4 19:47:46 10° S 19:53:51 78° E 19:59:57 10° N
Cosmos 2322 Rocket 4.2 19:51:35 10° N 19:54:45 15° NE 19:57:54 10° E
IRS-1A Rocket 4.3 19:49:46 10° SSE 19:55:13 64° ENE 20:00:40 10° N
CZ-4 R/B 4.4 19:53:12 10° SW 19:55:31 14° W 19:57:51 10° WNW
Cosmos 1689 Rocket 3.2 19:54:50 10° N 19:57:30 45° WNW 20:00:08 10° SSW
MOS 1 4.3 19:53:52 10° SSE 19:59:30 72° ENE 20:05:09 10° N
BREEZE-M DEB (TANK) 3.8 19:56:40 10° NW 19:59:32 49° NNE 20:07:01 10° E
Cosmos 1538 Rocket 4.4 19:55:12 10° S 20:00:02 40° ESE 20:04:51 10° NE
Resurs 01 Rocket 2.2 19:59:03 10° SE 20:03:14 42° ENE 20:07:26 10° N
Cosmos 2151 4.1 20:01:19 10° SE 20:04:50 26° E 20:08:22 10° NNE
Cosmos 44 Rocket 4.2 20:00:39 10° SW 20:05:45 58° NW 20:10:57 10° NNE
Cosmos 2098 Rocket 2.9 20:03:19 10° SSE 20:06:08 35° E 20:09:21 10° NNE
ERS-2 2.2 20:03:21 10° NNE 20:06:56 52° ESE 20:10:29 10° S
Gbstr 26 Del rocket 4.3 20:05:06 10° NW 20:08:23 28° NNE 20:11:47 10° ENE
USA 186 4.0 20:09:37 10° SSW 20:12:06 22° W 20:14:30 10° NW
Cosmos 2180 Rocket 4.5 20:06:44 10° N 20:12:55 85° E 20:19:03 10° S
Ariane Rocket 3.0 20:12:29 10° SSE 20:17:34 88° W 20:22:39 10° NNW
SL-16 R/B 3.4 20:18:58 10° N 20:23:52 29° NE 20:28:03 13° ESE
Centaur D AC-28 4.4 20:21:21 10° SW 20:27:00 33° SSE 20:50:24 10° E
Cosmos 1782 4.4 20:25:14 10° NNE 20:28:14 20° ENE 20:30:03 15° ESE
Cosmos 371 Rocket 3.3 20:24:05 10° NNW 20:28:54 69° ENE 20:32:51 15° SSE
ARIANE 5 R/B 4.1 20:26:51 14° ESE 20:29:32 24° ENE 20:33:05 10° NNE
Cosmos 1271 Rocket 3.8 20:31:18 10° N 20:34:53 31° ENE 20:36:55 19° ESE
SPOT 1/Viking Rocket 3.8 20:31:18 15° SE 20:35:32 55° ENE 20:40:38 10° N
USA 276 3.6 20:33:09 10° NW 20:36:02 31° NNE 20:38:32 12° E
Cosmos 1076 Rocket 3.7 20:32:49 10° SSW 20:37:10 78° W 20:41:32 10° N
BREEZE-M DEB (TANK) 2.7 20:34:25 10° NW 20:37:19 64° NNE 20:43:14 14° ESE
Atlas Centaur 2 3.2 20:36:13 10° SW 20:38:21 14° S 20:39:03 13° S
OBJECT-B 3.8 20:38:31 10° WSW 20:40:08 13° W 20:41:45 10° WNW
Cosmos 1697 Rocket 4.1 20:35:08 10° NW 20:40:11 34° WSW 20:45:13 10° SSW
Cosmos 1151 Rocket 4.4 20:38:20 10° NNE 20:41:53 24° ENE 20:43:40 19° ESE
ATLAS 2AS CENTAUR R/B 4.1 20:35:46 10° WSW 20:43:23 49° NW 20:50:50 10° NNE
Cosmos 923 Rocket 4.3 20:41:19 10° S 20:46:23 46° ESE 20:51:28 10° NNE
Terra 3.3 20:47:56 17° ESE 20:50:08 23° ENE 20:53:54 10° NNE
ATLAS 3B R/B 2.9 20:43:58 10° NW 20:51:06 81° WSW 20:56:43 19° SSE
SPOT 5 3.6 20:50:48 22° ESE 20:52:43 31° ENE 20:56:34 10° N
Cosmos 2082 Rocket 3.5 20:49:27 10° SW 20:54:47 43° WNW 21:00:10 10° NNE
Cosmos 1092 Rocket 4.0 20:48:48 10° S 20:55:00 72° E 21:01:18 10° NNE
Meteor 2-19 Rocket 4.4 20:49:05 10° S 20:55:08 83° E 21:01:13 10° N
USA 267 4.1 20:51:01 10° ENE 20:56:12 25° SE 20:59:01 19° SSE
Cosmos 1633 4.2 20:53:16 10° SW 20:56:35 35° WNW 20:59:57 10° N
Cosmos 2278 4.2 20:54:42 10° NNW 21:00:15 57° WSW 21:04:37 16° S
BREEZE-M DEB (TANK) 4.1 20:59:06 10° WNW 21:01:25 24° NNW 21:03:04 10° NE
ERS-1 Rocket 3.5 21:00:35 25° SE 21:03:03 44° ENE 21:07:50 10° N
Cosmos 332 Rocket 3.8 21:01:20 10° NNW 21:06:15 89° WSW 21:08:58 27° SSE
Cosmos 158 Rocket 4.2 21:01:09 10° SSW 21:06:16 72° WNW 21:11:34 10° NNE
Cosmos 2360 Rocket 3.4 21:02:23 10° N 21:07:15 29° NE 21:10:08 19° E
Cosmos 2026 Rocket 4.0 21:02:18 13° S 21:07:59 73° E 21:14:15 10° NNE
GP-B 3.0 21:09:34 10° N 21:14:02 76° E 21:16:14 29° S
ISS -3.8 21:11:59 10° WNW 21:15:21 70° SW 21:15:56 54° SSE
Cosmos 2333 Rocket 4.1 21:13:35 10° N 21:17:31 19° NE 21:20:38 13° E
Spot 2 Rocket 3.4 21:14:48 28° SSE 21:17:36 86° ENE 21:22:44 10° NNW
SPOT 3 Rocket 4.4 21:14:07 14° S 21:18:26 46° W 21:23:28 10° NNW
Meteor 1-26 Rocket 4.3 21:14:29 10° N 21:20:28 86° W 21:23:54 26° S
Cosmos 2112 Rocket 4.0 21:17:49 24° S 21:20:58 60° ESE 21:26:10 10° NNE
Cosmos 1680 Rocket 3.4 21:17:27 18° S 21:21:27 71° ESE 21:26:42 10° NNE
Cosmos 1812 3.3 21:19:01 10° N 21:22:39 38° ENE 21:23:03 37° E
Cosmos 220 Rocket 4.5 21:20:32 10° N 21:24:44 47° ENE 21:25:50 38° ESE
CZ-2C R/B 4.3 21:21:28 10° N 21:25:54 55° WNW 21:30:15 10° SSW
Okean 3 Rocket 3.5 21:24:58 37° SSE 21:26:37 69° E 21:31:07 10° NNE
USA 245 4.3 21:25:06 23° S 21:28:16 57° WSW 21:32:34 10° NNW
Cosmos 1980 Rocket 3.9 21:23:48 10° NW 21:28:25 27° WSW 21:32:51 11° SSW
Cosmos 2322 Rocket 2.1 21:34:05 10° NNW 21:39:45 81° ENE 21:41:46 41° SSE
Resurs 01 Rocket 3.9 21:36:46 10° SW 21:39:54 19° W 21:43:04 10° NW
Cosmos 1408 Rocket 3.7 21:40:12 48° ESE 21:40:31 49° E 21:44:43 10° NNE
Meteor 2-14 Rocket 4.4 21:43:59 32° S 21:47:03 81° E 21:53:13 10° N
CARTOSAT-1 4.4 21:46:36 29° SSW 21:48:14 43° W 21:52:22 10° NNW
Cosmos 2084 3.2 21:48:52 41° SW 21:50:14 87° WNW 21:54:25 10° NE
Cosmos 1553 Rocket 3.9 21:47:05 10° N 21:53:12 89° W 21:55:36 40° S
Cosmos 2266 Rocket 4.2 21:53:29 42° SE 21:55:02 52° E 22:01:02 10° NNE
Gbstr 26 Del rocket 2.6 21:51:37 10° WNW 21:55:25 75° SW 21:55:26 75° SSW
Cosmos 1862 3.1 21:57:03 78° SSW 21:57:18 86° W 22:01:18 10° N
Cosmos 2219 Rocket 3.4 21:56:17 10° N 22:01:12 30° NE 22:02:58 25° E
Cosmos 1624 Rocket 3.9 21:56:37 10° NNW 22:01:51 87° ENE 22:02:57 57° SSE
NOSS 2-1 (E) 3.8 22:05:22 43° NNE 22:05:22 43° NNE 22:07:49 10° NNE
Cosmos 1782 4.3 22:01:02 10° NNW 22:04:34 30° W 22:05:38 26° WSW
ARIANE 5 R/B 3.8 22:04:24 28° SW 22:05:47 35° W 22:09:54 10° NNW
Cosmos 2228 Rocket 4.2 22:02:17 10° NNE 22:06:05 31° ENE 22:06:05 31° ENE
Cosmos 1515 Rocket 3.4 22:02:03 10° N 22:06:30 80° E 22:06:43 77° ESE
H-2A R/B 3.3 22:03:03 10° NNE 22:07:15 79° E 22:07:15 79° E
SL-16 R/B 2.8 22:02:45 10° NW 22:08:10 46° WSW 22:09:55 35° SSW
COSMOS 2455 3.1 22:09:10 45° ESE 22:09:16 45° ESE 22:14:59 10° NE
NOSS 3-1 (C) 4.4 22:02:54 10° NNW 22:10:15 57° NE 22:14:30 31° ESE
USA 276 4.1 22:09:16 10° WNW 22:10:46 24° WNW 22:10:46 24° WNW
Cosmos 2237 4.2 22:06:44 10° NNW 22:12:27 75° WSW 22:13:45 53° S
Cosmos 1420 Rocket 4.0 22:07:32 10° NNW 22:12:53 73° ENE 22:13:43 60° SE
Cosmos 1655 Rocket 3.9 22:12:44 46° S 22:14:50 83° E 22:21:16 10° N
COSMOS 2428 3.8 22:10:52 10° N 22:15:58 33° NE 22:17:35 28° E
Meteor 2-6 Rocket 4.3 22:12:12 10° NNW 22:17:33 62° W 22:18:52 47° SSW
Cosmos 1151 Rocket 4.5 22:15:38 10° NNW 22:19:26 30° W 22:20:31 26° WSW
S3M 4.0 22:17:07 10° N 22:23:31 79° W 22:25:25 48° S
Terra 2.7 22:26:49 37° WSW 22:27:39 40° W 22:32:08 10° NNW
ATLAS 5 CENTAUR R/B 3.7 22:22:53 10° NNW 22:27:42 30° NE 22:30:39 21° E
SPOT 5 4.3 22:30:02 22° WSW 22:30:51 24° W 22:34:23 10° NW
Cosmos 1452 Rocket 3.7 22:27:13 10° NNW 22:32:23 55° ENE 22:32:49 53° E
ALOS 2 4.1 22:33:57 26° ENE 22:33:57 26° ENE 22:37:24 10° N
USA 267 3.1 22:33:08 10° NE 22:39:43 89° SE 22:46:07 11° SW
SL-27 R/B 4.2 22:39:50 29° WNW 22:39:56 29° WNW 22:43:08 10° N
Cosmos 2056 Rocket 4.2 22:36:52 10° NNW 22:41:53 42° WSW 22:42:28 40° WSW
Meteor 1-27 Rocket 3.6 22:37:52 10° NNW 22:43:33 83° W 22:44:14 69° SSW
NOSS 3-1 (A) 4.4 22:37:35 10° NNW 22:44:57 58° NE 22:48:48 33° ESE
Cosmos 1805 Rocket 3.9 22:49:13 62° NNE 22:49:13 62° NNE 22:52:57 10° N
Cosmos 2360 Rocket 2.7 22:46:04 10° NW 22:51:25 46° WSW 22:51:53 45° WSW
IRIDIUM 104 4.2 22:46:52 10° N 22:52:07 79° W 22:52:18 78° WSW
Meteor 1-20 Rocket 4.1 22:54:51 71° ESE 22:54:56 71° E 23:00:35 10° NNE
IRIDIUM 114 4.4 22:56:03 10° N 23:01:14 65° W 23:01:25 65° WSW
Cosmos 2333 Rocket 2.1 22:56:47 10° NNW 23:02:28 79° WSW 23:02:38 78° SW
Meteor 1-22 4.5 23:03:01 86° SW 23:03:08 88° W 23:08:40 10° N
Cosmos 1244 Rocket 4.4 23:03:47 65° ESE 23:04:12 67° E 23:10:20 10° NNE
Cosmos 972 Rocket 4.3 23:07:27 56° W 23:08:04 60° WNW 23:13:04 10° N
COBE Rocket 4.2 23:09:07 57° WNW 23:09:07 57° WNW 23:13:15 10° NNW
USA 234 3.5 23:10:03 39° ESE 23:12:36 67° NE 23:19:06 10° NW
Cosmos 2322 3.7 23:06:59 10° NNW 23:12:41 69° WSW 23:12:44 69° WSW
NOSS 0 Rocket 4.3 23:08:48 10° NNW 23:14:56 55° ENE 23:16:01 49° E
Cosmos 2297 Rocket 3.4 23:17:11 29° E 23:17:11 29° E 23:20:57 10° NE
Lacrosse 5 3.7 23:21:59 20° ENE 23:21:59 20° ENE 23:23:46 10° ENE
Cosmos 2322 Rocket 4.3 23:20:10 10° WNW 23:23:00 14° W 23:23:35 14° WSW
Cosmos 2237 Rocket 3.1 23:17:44 10° NNW 23:23:04 40° ENE 23:24:02 37° E
Meteor 1-18 Rocket 4.2 23:20:57 10° N 23:26:50 73° E 23:26:57 73° E
Cosmos 2227 Rocket 3.5 23:28:53 27° E 23:28:53 27° E 23:32:33 10° NE
Sich 1 4.0 23:28:46 42° NW 23:28:46 42° NW 23:32:15 10° N
Meteor 1-25 Rocket 4.4 23:30:16 61° W 23:30:34 62° WNW 23:36:07 10° N
Cosmos 1633 Rocket 3.9 23:33:06 48° N 23:33:06 48° N 23:36:16 10° N
Cosmos 2285 Rocket 4.1 23:26:06 10° NNW 23:32:14 58° WSW 23:32:33 57° WSW
Cosmos 494 Rocket 4.2 23:33:16 63° WNW 23:33:16 63° WNW 23:38:13 10° NNE
Cosmos 1666 Rocket 4.4 23:37:07 50° NNW 23:37:07 50° NNW 23:40:31 10° N
Cosmos 2219 Rocket 2.9 23:40:01 10° NW 23:44:40 41° W 23:44:40 41° W
SL-08 R/B 4.3 23:45:17 76° SW 23:45:42 81° W 23:51:54 10° N
Cosmos 1269 Rocket 4.4 23:50:05 56° ENE 23:50:05 56° ENE 23:54:30 10° NNE
Meteor 1-19 Rocket 4.4 23:44:17 10° NNW 23:49:32 60° W 23:49:32 60° W
SL-16 R/B 4.0 23:45:33 10° N 23:50:11 25° NE 23:52:42 19° E
